Location: Peebles
(55.6412°N, 3.1714°W)
Time: 22:05:33
(UTC+00:00)

FENGYUN 1C DEB - Pass Details

Date: 05 February 2023
Orbit: 707 x 862 km, 98.5° (Epoch: 07 November)

Event Time Altitude Azimuth Distance (km) Brightness Sun altitude
Rises 20:11:37 0° 187° (S) 3,382 ? -27.7°
Reaches altitude 10° 20:14:07 10° 195° (SSW) 2,463 ? -28.0°
Maximum altitude 20:19:15 40° 264° (W) 1,242 ? -28.7°
Drops below altitude 10° 20:24:27 10° 333° (NNW) 2,487 ? -29.5°
Sets 20:26:59 0° 341° (NNW) 3,420 ? -29.8°
